Regional Weather Roundup
Issued by NWS

Home | Current Version | Previous Version | Graphics & Text | Print | Product List | Glossary On
Versions: 1 2 3 4 5 6 7 8 9 10 11 12 13 14 15 16 17 18 19 20 21 22 23 24 25 26 27 28 29 30 31 32 33 34 35 36 37 38 39 40 41 42 43 44 45 46 47 48 49 50
000
ASUS43 KOAX 050310
RWRNE

WEATHER ROUNDUP FOR NEBRASKA
NATIONAL WEATHER SERVICE OMAHA NE
900 PM CST WED MAR 04 2015

NOTES: SATELLITE DATA IS BEING USED TO AUGMENT CLOUD COVER ABOVE
       12000 FEET.
       "FAIR" INDICATES FEW OR NO CLOUDS BELOW 12,000 FEET WITH NO
       SIGNIFICANT WEATHER AND/OR OBSTRUCTIONS TO VISIBILITY.

  * THESE STATIONS DO NOT REPORT WEATHER SUCH AS RAIN...SNOW OR FOG.

NEZ001>004-019>022-054>056-050400-
NEBRASKA PANHANDLE

CITY           SKY/WX    TMP DP  RH WIND       PRES   REMARKS
SCOTTSBLUFF    CLEAR     16   4  59 W5        30.22R WCI   9
ALLIANCE       CLEAR      7   1  76 W6        30.20R WCI  -3
CHADRON        CLEAR      9   3  77 N5        30.25R WCI   1
SIDNEY         CLEAR      9   3  77 W5        30.22R WCI   1
$$

NEZ057>060-069>072-079>082-050400-
SOUTHWEST NEBRASKA

CITY           SKY/WX    TMP DP  RH WIND       PRES   REMARKS
NORTH PLATTE   CLEAR     15  -2  46 NE7       30.29R WCI   5
IMPERIAL         N/A     19   5  54 W3        30.28R
MCCOOK         CLOUDY    23   6  48 W3        30.31R
$$

NEZ005>010-023>029-035>040-094-050400-
NORTH CENTRAL NEBRASKA

CITY           SKY/WX    TMP DP  RH WIND       PRES   REMARKS
VALENTINE      CLEAR      5   0  79 NW3       30.31R
AINSWORTH      CLEAR      9   0  68 CALM      30.32R
BROKEN BOW     CLEAR      8  -4  58 N7        30.33R WCI  -3
ORD            CLEAR     11  -3  53 NE5       30.37R WCI   3
$$

NEZ041-046>049-061>064-073>077-083>087-050400-
SOUTH CENTRAL NEBRASKA

CITY           SKY/WX    TMP DP  RH WIND       PRES   REMARKS
GRAND ISLAND   CLEAR     13   1  59 NE9       30.38R WCI   1
HASTINGS       CLEAR     14   2  58 NE8       30.35R WCI   3
HEBRON         PTCLDY    19   3  49 NE8       30.38R WCI   9
KEARNEY *      CLEAR     12   1  62 NE6       30.34S WCI   3
$$

NEZ011>018-030>034-042>045-050400-
NORTHEAST NEBRASKA

CITY           SKY/WX    TMP DP  RH WIND       PRES   REMARKS
BLAIR          CLEAR     14  -2  50 N15       30.42R WCI  -2
COLUMBUS *     CLEAR     10  -8  44 N7        30.43R WCI   0
FREMONT        CLEAR     14  -3  47 N5        30.44S WCI   6
TEKAMAH        CLEAR     12  -2  53 N9        30.47R WCI   0
$$

NEZ050>053-065>068-078-088>093-050400-
SOUTHEAST NEBRASKA

CITY           SKY/WX    TMP DP  RH WIND       PRES   REMARKS
LINCOLN        CLEAR     16  -1  47 N14       30.42R WCI   2
OMAHA EPPLEY   CLEAR     15   0  51 N12       30.44R WCI   2
FALLS CITY     PTCLDY    20   0  41 N8        30.39F WCI  10
$$

NEZ044-045-051>053-067-050400-
OMAHA AREA

CITY           SKY/WX    TMP DP  RH WIND       PRES   REMARKS
OMAHA EPPLEY   CLEAR     15   0  51 N12       30.44R WCI   2
BLAIR          CLEAR     14  -2  50 N15       30.42R WCI  -2
FREMONT        CLEAR     14  -3  47 N5        30.44S WCI   6
OFFUTT AFB     CLEAR     17  -2  43 N10       30.42R WCI   4
$$



USA.gov is the U.S. government's official web portal to all federal, state and local government web resources and services.